User: anonymous   Login
Location: Unspecified
(0.0000°N, 0.0000°E)
Time: 14:49:53
(UTC+00:00)
Language:

SRMSAT - Orbit

View from above orbital plane
View from above orbital plane
View from above satellite
View from above satellite

Ground track
Ground track

The orbit data is extracted from the following two-line orbital elements,

1 37841U 11058D   17206.26333171 +.00000315 +00000-0 +27842-4 0  9996
2 37841 019.9713 262.0770 0011889 138.5839 276.3889 14.10579305298572
Epoch (UTC): 25 July 2017 06:19:11
Eccentricity: 0.0011889
inclination: 19.9713°
perigee height: 849 km
apogee height: 866 km
right ascension of ascending node: 262.0770°
argument of perigee: 138.5839°
revolutions per day: 14.10579305
mean anomaly at epoch: 276.3889°
orbit number at epoch: 29857

The dashed part of the orbit path shows where the satellite is in the earth's shadow,  

DLR